SKYSAT-C2

Last updated on Tue Oct 15 2024 00:02:25 GMT+0000 (Coordinated Universal Time)

1 41773U 16058D 24288.57036907 .00017792 00000+0 55267-3 0 9996 2 41773 96.9984 328.2952 0003757 116.1428 244.0202 15.33401730451387
UTC large
Height (km)
Speed (km/s)
/
Latitude / Longitude
Inclination (degrees)
Orbital Period (minutes)
Azimuth
Elevation
Range (km)
Doppler Factor

Next 0 passes for location: London (51.5072 / 0.1276)

Sorry there are no passes over London.